This demonstration page uses our WeatherBlox Daily Observations layout. Learn more.

38.89511, -77.03637

Hourly Observations for December 13, 2019

Temp ( °F °C ) Dew Point ( °F °C ) Humidity (%) Winds ( mph kmh ) Pressure ( in mb ) Visibility ( mi km ) Precip ( " mm )
12:52 am 00:52 Partly Cloudy 34 1.1 25 -3.9 70 70 ENE 5 7 30.52 1033 9 14.48406 0 0
1:52 am 01:52 Mostly Cloudy 35 1.7 25 -3.9 67 67 Calm 30.5 1033 9 14.48406 0 0
2:52 am 02:52 Cloudy 35 1.7 27 -2.8 72 72 ENE 6 9 30.48 1032 8 12.87472 0 0
3:52 am 03:52 Cloudy 36 2.2 28 -2.2 73 73 N 7 11 30.46 1031 8 12.87472 0 0
4:52 am 04:52 Mostly Cloudy 36 2.2 29 -1.7 76 76 NNE 10 17 30.43 1030 8 12.87472 0 0
5:00 am 05:00 Mostly Cloudy 36 2.2 29 -1.7 76 76 NNE 10 17 30.42 1030 8 12.87472 0 0
5:36 am 05:36 Cloudy 36 2.2 29 -1.7 76 76 NE 7 11 30.4 1030 7 11.26538 0 0
5:43 am 05:43 Cloudy 36 2.2 29 -1.7 76 76 ENE 7 11 30.39 1029 7 11.26538 0 0
5:52 am 05:52 Cloudy 35 1.7 29 -1.7 78 78 ENE 9 15 30.38 1029 7 11.26538 0 0
5:59 am 05:59 Cloudy 35 1.7 29 -1.7 78 78 NE 9 15 30.38 1029 7 11.26538 0 0
6:29 am 06:29 Cloudy 36 2.2 29 -1.7 76 76 N 6 9 30.4 1030 8 12.87472 0 0
6:52 am 06:52 Cloudy 36 2.2 29 -1.7 76 76 NE 6 9 30.39 1029 8 12.87472 0 0
7:52 am 07:52 Cloudy 37 2.8 29 -1.7 73 73 N 7 11 30.38 1029 8 12.87472 0 0
8:42 am 08:42 Cloudy with Light Rain 37 2.8 31 -0.6 79 79 NNE 6 9 30.36 1028 4 6.43736 0.001 0.001
8:52 am 08:52 Cloudy with Light Rain 37 2.8 31 -0.6 79 79 NNE 6 9 30.36 1028 4 6.43736 0.001 0.001
9:29 am 09:29 Cloudy with Light Rain 37 2.8 32 0 82 82 NNE 5 7 30.36 1028 6 9.65604 0.01 0.254
9:52 am 09:52 Cloudy with Light Rain 37 2.8 33 0.6 86 86 NNE 5 7 30.35 1028 4 6.43736 0.02 0.508
10:52 am 10:52 Cloudy with Light Rain 37 2.8 34 1.1 89 89 NNW 8 13 30.32 1027 5 8.0467 0.03 0.762
11:04 am 11:04 Cloudy with Light Rain 37 2.8 34 1.1 89 89 NNW 8 13 30.31 1027 4 6.43736 0.01 0.254
11:19 am 11:19 Cloudy with Light Rain 37 2.8 35 1.7 93 93 N 7 11 30.3 1026 4 6.43736 0.02 0.508
11:52 am 11:52 Cloudy with Light Rain 38 3.3 36 2.2 93 93 N 3 6 30.27 1025 3 4.82802 0.04 1.016
11:55 am 11:55 Cloudy with Light Rain 38 3.3 36 2.2 93 93 N 5 7 30.28 1025 3 4.82802 0.001 0.001
12:52 pm 12:52 Cloudy with Light Rain 39 3.9 37 2.8 93 93 NNE 3 6 30.22 1023 3 4.82802 0.03 0.762
1:52 pm 13:52 Cloudy with Mist and Fog 40 4.4 38 3.3 93 93 NNW 7 11 30.18 1022 5 8.0467 0.01 0.254
2:52 pm 14:52 Cloudy with Light Rain 40 4.4 39 3.9 97 97 NE 5 7 30.15 1021 5 8.0467 0.01 0.254
3:52 pm 15:52 Cloudy with Mist and Fog 41 5 39 3.9 93 93 NE 8 13 30.11 1020 4 6.43736 0.01 0.254
4:13 pm 16:13 Cloudy with Mist and Fog 41 5 40 4.4 96 96 NNE 3 6 30.11 1020 2.5 4.02335 0 0
4:47 pm 16:47 Cloudy with Light Rain 41 5 39 4 93 93 NNE 6 9 30.09 1019 3 4.82802 0.001 0.001
4:52 pm 16:52 Cloudy with Light Rain 41 5 40 4.4 96 96 NNE 6 9 30.09 1019 4 6.43736 0.001 0.001
5:16 pm 17:16 Cloudy with Mist and Fog 41 5 40 4.4 96 96 NNE 8 13 30.07 1018 2.5 4.02335 0.001 0.001
5:35 pm 17:35 Cloudy with Mist and Fog 42 5.6 41 5 96 96 N 8 13 30.06 1018 3 4.82802 0.001 0.001
5:52 pm 17:52 Cloudy with Mist and Fog 42 5.6 41 5 96 96 N 8 13 30.05 1018 3 4.82802 0.001 0.001
6:05 pm 18:05 Cloudy with Mist and Fog 42 5.6 41 5 96 96 NNW 9 15 30.05 1018 2.5 4.02335 0 0
6:25 pm 18:25 Cloudy with Mist and Fog 42 5.6 41 5 96 96 NNW 9 15 30.04 1017 3 4.82802 0 0
6:36 pm 18:36 Cloudy with Mist and Fog 42 5.6 41 5 96 96 NNW 9 15 30.03 1017 2.5 4.02335 0 0
6:52 pm 18:52 Cloudy with Light Drizzle 42 5.6 41 5 96 96 N 9 15 30.01 1016 2.5 4.02335 0.001 0.001
7:01 pm 19:01 Cloudy with Light Drizzle 42 5.6 41 5 96 96 N 10 17 30.01 1016 1.25 2.011675 0.001 0.001
7:17 pm 19:17 Cloudy with Light Drizzle 42 5.6 41 5 96 96 NNW 9 15 30.01 1016 2 3.21868 0.001 0.001
7:44 pm 19:44 Cloudy with Mist and Fog 42 5.6 41 5 96 96 N 8 13 29.98 1015 1.5 2.41401 0.001 0.001
7:52 pm 19:52 Cloudy with Mist and Fog 42 5.6 41 5 96 96 N 8 13 29.97 1015 1 1.60934 0.001 0.001
8:11 pm 20:11 Cloudy with Mist and Fog 43 6.1 42 5.6 97 97 NNW 7 11 29.96 1015 2.5 4.02335 0 0
8:25 pm 20:25 Cloudy with Mist and Fog 43 6.1 43 6.1 100 100 NNW 7 11 29.95 1014 3 4.82802 0 0
8:52 pm 20:52 Cloudy with Mist and Fog 43 6.1 42 5.6 97 97 NNW 8 13 29.93 1013 3 4.82802 0 0
9:17 pm 21:17 Cloudy with Light Rain 43 6.1 42 5.6 97 97 NNW 9 15 29.91 1013 2.5 4.02335 0.001 0.001
9:29 pm 21:29 Cloudy with Light Rain 43 6.1 42 5.6 97 97 NW 9 15 29.91 1013 1.75 2.816345 0.001 0.001
9:52 pm 21:52 Cloudy with Light Rain 42 5.6 41 5 96 96 NNW 9 15 29.89 1012 2 3.21868 0.01 0.254
10:16 pm 22:16 Cloudy with Rain 41 5 40 4.4 96 96 N 9 15 29.88 1012 2 3.21868 0.04 1.016
10:38 pm 22:38 Cloudy with Light Rain 42 5.6 41 5 96 96 NW 10 17 29.86 1011 4 6.43736 0.07 1.778
10:52 pm 22:52 Cloudy with Light Rain 42 5.6 41 5 96 96 NNW 8 13 29.84 1011 4 6.43736 0.08 2.032
11:33 pm 23:33 Cloudy with Light Rain 42 5.6 40 4.4 92 92 NNW 10 17 29.8 1009 5 8.0467 0.02 0.508
11:52 pm 23:52 Cloudy with Light Rain 42 5.6 40 4.4 92 92 N 9 15 29.78 1008 6 9.65604 0.03 0.762

Powered by AerisWeather